| time (UTC) | temp C | wind direction | speed KPH | gust KPH | rain 1hr cm | rain 24hr cm | rain mn cm | humidity % | barometer mb |
| 20260505223855 | 28 | 54 | 3.2 | 4.8 | 0.00 | 0.15 | 0.15 | 91 | 1011.5 |
| 20260505223352 | 28 | 92 | 3.2 | 6.4 | 0.00 | 0.15 | 0.15 | 89 | 1011.9 |
| 20260505222847 | 28 | 93 | 1.6 | 4.8 | 0.00 | 0.15 | 0.15 | 88 | 1011.9 |
| 20260505222344 | 29 | 93 | 1.6 | 3.2 | 0.00 | 0.15 | 0.15 | 87 | 1011.9 |
| 20260505221841 | 29 | 28 | 3.2 | 4.8 | 0.00 | 0.15 | 0.15 | 88 | 1011.5 |
| 20260505221338 | 28 | 71 | 1.6 | 6.4 | 0.00 | 0.15 | 0.15 | 87 | 1011.5 |
| 20260505220835 | 28 | 72 | 1.6 | 6.4 | 0.00 | 0.15 | 0.15 | 88 | 1011.5 |
| 20260505220332 | 28 | 62 | 3.2 | 6.4 | 0.00 | 0.15 | 0.15 | 89 | 1011.9 |
| 20260505215830 | 28 | 62 | 1.6 | 4.8 | 0.00 | 0.15 | 0.15 | 90 | 1011.9 |
| 20260505215327 | 27 | 60 | 3.2 | 6.4 | 0.00 | 0.15 | 0.15 | 90 | 1011.9 |
| 20260505214825 | 27 | 50 | 1.6 | 4.8 | 0.00 | 0.15 | 0.15 | 90 | 1011.9 |
| 20260505214322 | 27 | 50 | 3.2 | 6.4 | 0.00 | 0.15 | 0.15 | 90 | 1011.5 |
| 20260505213819 | 27 | 50 | 1.6 | 4.8 | 0.00 | 0.15 | 0.15 | 91 | 1011.5 |
| 20260505213317 | 27 | 50 | 0.0 | 0.0 | 0.00 | 0.15 | 0.15 | 91 | 1011.9 |
| 20260505212813 | 27 | 29 | 0.0 | 4.8 | 0.00 | 0.15 | 0.15 | 92 | 1011.5 |
| 20260505212310 | 27 | 29 | 3.2 | 6.4 | 0.00 | 0.15 | 0.15 | 93 | 1011.5 |
| 20260505211806 | 26 | 29 | 0.0 | 3.2 | 0.00 | 0.15 | 0.15 | 94 | 1011.5 |
| 20260505211304 | 26 | 29 | 0.0 | 0.0 | 0.00 | 0.15 | 0.15 | 93 | 1011.5 |
| 20260505210800 | 26 | 29 | 0.0 | 0.0 | 0.00 | 0.15 | 0.15 | 93 | 1011.5 |
| 20260505210258 | 27 | 29 | 0.0 | 0.0 | 0.00 | 0.15 | 0.15 | 92 | 1011.5 |
| 20260505205754 | 27 | 29 | 0.0 | 3.2 | 0.00 | 0.15 | 0.15 | 92 | 1011.2 |
| 20260505205253 | 27 | 34 | 0.0 | 0.0 | 0.00 | 0.15 | 0.15 | 92 | 1011.2 |
| 20260505204749 | 26 | 81 | 1.6 | 4.8 | 0.00 | 0.15 | 0.15 | 92 | 1011.2 |
| 20260505204247 | 26 | 87 | 0.0 | 0.0 | 0.00 | 0.15 | 0.15 | 93 | 1011.2 |
| 20260505203744 | 26 | 87 | 1.6 | 3.2 | 0.00 | 0.15 | 0.15 | 92 | 1011.2 |
| 20260505203241 | 26 | 23 | 1.6 | 3.2 | 0.00 | 0.15 | 0.15 | 92 | 1010.8 |
| 20260505202736 | 26 | 23 | 0.0 | 0.0 | 0.00 | 0.15 | 0.15 | 91 | 1010.8 |
| 20260505202233 | 26 | 23 | 0.0 | 3.2 | 0.00 | 0.15 | 0.15 | 91 | 1010.8 |
| 20260505201729 | 26 | 23 | 0.0 | 0.0 | 0.00 | 0.15 | 0.15 | 91 | 1010.8 |
| 20260505201227 | 26 | 23 | 1.6 | 6.4 | 0.00 | 0.15 | 0.15 | 92 | 1010.8 |
| 20260505200725 | 26 | 23 | 0.0 | 0.0 | 0.00 | 0.15 | 0.15 | 92 | 1010.8 |
| 20260505200222 | 26 | 86 | 1.6 | 4.8 | 0.00 | 0.15 | 0.15 | 92 | 1010.8 |
| 20260505195717 | 26 | 27 | 0.0 | 0.0 | 0.00 | 0.15 | 0.15 | 93 | 1010.8 |
| 20260505195215 | 26 | 27 | 0.0 | 0.0 | 0.00 | 0.15 | 0.15 | 93 | 1010.5 |
| 20260505194712 | 26 | 49 | 1.6 | 6.4 | 0.00 | 0.15 | 0.15 | 93 | 1010.5 |
| 20260505194209 | 26 | 66 | 0.0 | 0.0 | 0.00 | 0.15 | 0.15 | 94 | 1010.5 |
| 20260505193704 | 26 | 66 | 0.0 | 0.0 | 0.00 | 0.15 | 0.15 | 94 | 1010.5 |
| 20260505193202 | 26 | 66 | 1.6 | 3.2 | 0.00 | 0.15 | 0.15 | 94 | 1010.5 |
| 20260505192701 | 26 | 66 | 1.6 | 4.8 | 0.00 | 0.15 | 0.15 | 95 | 1010.5 |
| 20260505192158 | 26 | 66 | 0.0 | 0.0 | 0.00 | 0.15 | 0.15 | 94 | 1010.5 |
| 20260505191656 | 26 | 66 | 0.0 | 0.0 | 0.00 | 0.15 | 0.15 | 93 | 1010.5 |
| 20260505191154 | 26 | 66 | 1.6 | 3.2 | 0.00 | 0.15 | 0.15 | 93 | 1010.5 |
| 20260505190650 | 26 | 66 | 0.0 | 0.0 | 0.00 | 0.15 | 0.15 | 94 | 1010.2 |
| 20260505190149 | 26 | 36 | 0.0 | 3.2 | 0.00 | 0.15 | 0.15 | 95 | 1010.2 |
| 20260505185646 | 26 | 36 | 0.0 | 0.0 | 0.00 | 0.15 | 0.15 | 95 | 1010.5 |
| 20260505185143 | 26 | 36 | 0.0 | 0.0 | 0.00 | 0.15 | 0.15 | 95 | 1010.2 |
| 20260505184639 | 26 | 36 | 0.0 | 0.0 | 0.00 | 0.15 | 0.15 | 95 | 1010.2 |
| 20260505184136 | 26 | 36 | 0.0 | 0.0 | 0.00 | 0.15 | 0.15 | 95 | 1010.2 |
| 20260505183633 | 26 | 36 | 4.8 | 8.0 | 0.00 | 0.15 | 0.15 | 94 | 1010.2 |
| 20260505183131 | 26 | 65 | 0.0 | 3.2 | 0.00 | 0.15 | 0.15 | 95 | 1010.2 |
| 20260505182627 | 26 | 65 | 1.6 | 3.2 | 0.00 | 0.15 | 0.15 | 95 | 1010.2 |
| 20260505182124 | 26 | 67 | 4.8 | 11.3 | 0.00 | 0.15 | 0.15 | 96 | 1010.2 |
| 20260505181620 | 26 | 59 | 0.0 | 0.0 | 0.00 | 0.15 | 0.15 | 96 | 1010.2 |
| 20260505181118 | 26 | 59 | 0.0 | 3.2 | 0.00 | 0.15 | 0.15 | 96 | 1010.2 |
| 20260505180614 | 26 | 59 | 0.0 | 0.0 | 0.00 | 0.15 | 0.15 | 96 | 1010.2 |
| 20260505180112 | 26 | 59 | 3.2 | 6.4 | 0.00 | 0.15 | 0.15 | 96 | 1010.2 |
| 20260505175607 | 26 | 47 | 0.0 | 0.0 | 0.00 | 0.15 | 0.15 | 95 | 1010.2 |
| 20260505175104 | 26 | 28 | 3.2 | 6.4 | 0.00 | 0.15 | 0.15 | 96 | 1010.2 |
| 20260505174600 | 26 | 71 | 3.2 | 4.8 | 0.00 | 0.15 | 0.15 | 96 | 1010.2 |
| 20260505174056 | 26 | 71 | 4.8 | 8.0 | 0.00 | 0.15 | 0.15 | 96 | 1010.2 |
| 20260505173553 | 26 | 79 | 0.0 | 0.0 | 0.00 | 0.15 | 0.15 | 96 | 1010.2 |
| 20260505173050 | 26 | 62 | 3.2 | 4.8 | 0.00 | 0.15 | 0.15 | 97 | 1010.2 |
| 20260505172548 | 26 | 71 | 1.6 | 3.2 | 0.00 | 0.15 | 0.15 | 97 | 1010.2 |
| 20260505172044 | 26 | 71 | 0.0 | 3.2 | 0.00 | 0.15 | 0.15 | 97 | 1010.5 |
| 20260505171539 | 26 | 71 | 0.0 | 0.0 | 0.00 | 0.15 | 0.15 | 97 | 1010.5 |
| 20260505171036 | 26 | 69 | 3.2 | 8.0 | 0.00 | 0.15 | 0.15 | 97 | 1010.5 |
| 20260505170533 | 26 | 75 | 0.0 | 3.2 | 0.00 | 0.15 | 0.15 | 97 | 1010.5 |
| 20260505170029 | 26 | 75 | 0.0 | 3.2 | 0.00 | 0.15 | 0.15 | 97 | 1010.5 |
| 20260505165525 | 26 | 75 | 0.0 | 0.0 | 0.00 | 0.13 | 0.13 | 97 | 1010.5 |
| 20260505165020 | 26 | 75 | 1.6 | 3.2 | 0.00 | 0.13 | 0.13 | 97 | 1010.5 |
| 20260505164517 | 26 | 61 | 3.2 | 8.0 | 0.00 | 0.13 | 0.13 | 97 | 1010.5 |
| 20260505164015 | 26 | 45 | 0.0 | 4.8 | 0.00 | 0.13 | 0.13 | 97 | 1010.5 |
| 20260505163513 | 26 | 67 | 1.6 | 3.2 | 0.00 | 0.13 | 0.13 | 97 | 1010.5 |
| 20260505163010 | 26 | 67 | 1.6 | 3.2 | 0.00 | 0.13 | 0.13 | 97 | 1010.5 |
| 20260505162503 | 26 | 67 | 0.0 | 1.6 | 0.00 | 0.10 | 0.10 | 96 | 1010.5 |
| 20260505162000 | 26 | 75 | 0.0 | 3.2 | 0.00 | 0.08 | 0.08 | 96 | 1010.5 |
| 20260505161456 | 25 | 75 | 0.0 | 0.0 | 0.00 | 0.08 | 0.08 | 97 | 1010.5 |
| 20260505160953 | 25 | 75 | 0.0 | 3.2 | 0.00 | 0.08 | 0.08 | 97 | 1010.5 |
| 20260505160452 | 25 | 75 | 0.0 | 3.2 | 0.00 | 0.08 | 0.08 | 97 | 1010.8 |
| 20260505152928 | 26 | 75 | 3.2 | 6.4 | 0.00 | 0.08 | 0.08 | 96 | 1010.8 |
| 20260505152426 | 25 | 75 | 0.0 | 0.0 | 0.00 | 0.08 | 0.08 | 96 | 1010.8 |
| 20260505151925 | 25 | 61 | 3.2 | 6.4 | 0.00 | 0.08 | 0.08 | 96 | 1010.8 |
| 20260505151422 | 25 | 61 | 3.2 | 4.8 | 0.00 | 0.08 | 0.08 | 96 | 1010.8 |
| 20260505150919 | 25 | 54 | 3.2 | 6.4 | 0.00 | 0.08 | 0.08 | 96 | 1010.8 |
| 20260505150416 | 25 | 71 | 3.2 | 6.4 | 0.00 | 0.08 | 0.08 | 97 | 1010.8 |
| 20260505140346 | 25 | 80 | 1.6 | 4.8 | 0.00 | 0.05 | 0.05 | 96 | 1011.9 |
| 20260505130309 | 25 | 77 | 0.0 | 4.8 | 0.00 | 0.00 | 0.00 | 96 | 1012.9 |
| 20260505124759 | 25 | 56 | 1.6 | 4.8 | 0.00 | 1.42 | 1.42 | 97 | 1013.2 |
| 20260505124256 | 25 | 74 | 1.6 | 6.4 | 0.00 | 1.42 | 1.42 | 96 | 1013.2 |
| 20260505123752 | 25 | 56 | 4.8 | 14.5 | 0.00 | 1.42 | 1.42 | 97 | 1012.9 |
| 20260505123249 | 25 | 59 | 3.2 | 6.4 | 0.00 | 1.42 | 1.42 | 97 | 1013.2 |
| 20260505122745 | 25 | 59 | 3.2 | 6.4 | 0.00 | 1.42 | 1.42 | 97 | 1013.2 |
| 20260505122242 | 25 | 69 | 4.8 | 8.0 | 0.00 | 1.42 | 1.42 | 97 | 1013.2 |
| 20260505121739 | 26 | 59 | 4.8 | 8.0 | 0.00 | 1.40 | 1.40 | 96 | 1013.6 |
| 20260505121236 | 26 | 66 | 4.8 | 11.3 | 0.00 | 1.37 | 1.37 | 96 | 1013.6 |
| 20260505120732 | 26 | 43 | 6.4 | 11.3 | 0.00 | 1.37 | 1.37 | 96 | 1013.6 |
| 20260505120228 | 26 | 49 | 8.0 | 16.1 | 0.00 | 1.37 | 1.37 | 96 | 1013.6 |
| 20260505115727 | 26 | 71 | 8.0 | 14.5 | 0.00 | 1.37 | 1.37 | 96 | 1013.6 |
| 20260505115225 | 26 | 61 | 3.2 | 4.8 | 0.00 | 1.37 | 1.37 | 97 | 1013.6 |
| 20260505114722 | 26 | 58 | 4.8 | 9.7 | 0.00 | 1.37 | 1.37 | 96 | 1013.6 |
| 20260505114218 | 26 | 67 | 3.2 | 6.4 | 0.00 | 1.35 | 1.35 | 96 | 1013.6 |
| 20260505113714 | 26 | 80 | 6.4 | 11.3 | 0.00 | 1.35 | 1.35 | 96 | 1013.6 |
| 20260505113211 | 26 | 53 | 0.0 | 8.0 | 0.00 | 1.32 | 1.32 | 96 | 1013.6 |
| 20260505112708 | 26 | 70 | 1.6 | 4.8 | 0.00 | 1.32 | 1.32 | 96 | 1013.6 |
| 20260505112206 | 26 | 65 | 0.0 | 3.2 | 1.19 | 1.30 | 1.30 | 95 | 1013.6 |
| 20260505111705 | 26 | 54 | 3.2 | 9.7 | 0.00 | 1.19 | 1.19 | 94 | 1013.6 |
| 20260505111201 | 26 | 55 | 4.8 | 6.4 | 0.00 | 1.19 | 1.19 | 93 | 1013.6 |
| 20260505110658 | 26 | 52 | 3.2 | 4.8 | 0.00 | 1.19 | 1.19 | 94 | 1013.6 |
| 20260505110155 | 26 | 37 | 3.2 | 6.4 | 0.00 | 1.17 | 1.17 | 93 | 1013.2 |
| 20260505102131 | 26 | 77 | 3.2 | 11.3 | 0.00 | 1.17 | 1.17 | 94 | 1013.2 |
| 20260505101629 | 26 | 60 | 4.8 | 9.7 | 0.00 | 1.17 | 1.17 | 95 | 1013.2 |
| 20260505101125 | 26 | 32 | 3.2 | 4.8 | 0.00 | 1.17 | 1.17 | 95 | 1012.9 |
| 20260505100621 | 26 | 76 | 1.6 | 4.8 | 0.00 | 1.17 | 1.17 | 95 | 1012.9 |
| 20260505100119 | 26 | 58 | 4.8 | 9.7 | 0.00 | 1.17 | 1.17 | 95 | 1012.9 |
| 20260505095615 | 26 | 58 | 4.8 | 6.4 | 0.00 | 1.17 | 1.17 | 95 | 1012.9 |
| 20260505095111 | 26 | 68 | 6.4 | 9.7 | 0.00 | 1.17 | 1.17 | 95 | 1012.9 |
| 20260505094608 | 26 | 85 | 4.8 | 11.3 | 0.00 | 1.17 | 1.17 | 96 | 1012.9 |
| 20260505094104 | 26 | 78 | 4.8 | 11.3 | 0.00 | 1.17 | 1.17 | 96 | 1012.9 |
| 20260505093600 | 26 | 65 | 4.8 | 9.7 | 0.00 | 1.17 | 1.17 | 96 | 1012.5 |
| 20260505093058 | 26 | 110 | 3.2 | 4.8 | 0.00 | 1.17 | 1.17 | 96 | 1012.9 |
| 20260505092555 | 26 | 77 | 1.6 | 4.8 | 0.00 | 1.17 | 1.17 | 96 | 1012.5 |
| 20260505092053 | 26 | 80 | 3.2 | 8.0 | 0.00 | 1.17 | 1.17 | 95 | 1012.5 |
| 20260505091550 | 26 | 53 | 1.6 | 6.4 | 0.00 | 1.17 | 1.17 | 95 | 1012.5 |
| 20260505091049 | 26 | 72 | 9.7 | 17.7 | 0.00 | 1.14 | 1.14 | 94 | 1012.5 |
| 20260505090546 | 26 | 65 | 8.0 | 14.5 | 0.00 | 1.04 | 1.04 | 94 | 1012.2 |
| 20260505090044 | 26 | 79 | 3.2 | 6.4 | 0.00 | 1.04 | 1.04 | 94 | 1011.9 |
| 20260505085541 | 26 | 57 | 4.8 | 6.4 | 0.00 | 1.04 | 1.04 | 94 | 1012.2 |
| 20260505085039 | 26 | 70 | 4.8 | 6.4 | 0.00 | 1.04 | 1.04 | 95 | 1011.9 |
| 20260505084537 | 26 | 65 | 4.8 | 8.0 | 0.00 | 1.04 | 1.04 | 95 | 1012.2 |
| 20260505084035 | 26 | 60 | 6.4 | 9.7 | 0.00 | 1.04 | 1.04 | 94 | 1012.2 |
| 20260505083532 | 26 | 71 | 4.8 | 8.0 | 0.00 | 1.04 | 1.04 | 95 | 1011.9 |
| 20260505083028 | 26 | 69 | 3.2 | 4.8 | 0.00 | 1.04 | 1.04 | 95 | 1011.9 |
| 20260505082524 | 26 | 77 | 3.2 | 6.4 | 0.00 | 1.04 | 1.04 | 94 | 1011.9 |
| 20260505082021 | 26 | 65 | 6.4 | 14.5 | 0.00 | 1.04 | 1.04 | 94 | 1011.9 |
| 20260505081518 | 27 | 109 | 3.2 | 8.0 | 3.61 | 0.99 | 0.99 | 92 | 1011.9 |
| 20260505081015 | 27 | 65 | 3.2 | 6.4 | 0.00 | 0.91 | 0.91 | 91 | 1011.9 |
| 20260505080511 | 27 | 83 | 3.2 | 9.7 | 0.00 | 0.91 | 0.91 | 91 | 1011.9 |
| 20260505080008 | 27 | 55 | 4.8 | 8.0 | 0.00 | 0.91 | 0.91 | 91 | 1011.5 |
| 20260505075504 | 27 | 59 | 4.8 | 12.9 | 0.00 | 0.91 | 0.91 | 91 | 1011.5 |
| 20260505075001 | 27 | 86 | 3.2 | 8.0 | 0.00 | 0.91 | 0.91 | 92 | 1011.5 |
| 20260505074458 | 27 | 60 | 1.6 | 6.4 | 0.00 | 0.91 | 0.91 | 91 | 1011.5 |
| 20260505073955 | 27 | 72 | 3.2 | 8.0 | 0.00 | 0.91 | 0.91 | 91 | 1011.2 |
| 20260505073453 | 27 | 51 | 4.8 | 8.0 | 0.00 | 0.91 | 0.91 | 91 | 1011.2 |
| 20260505072950 | 27 | 53 | 4.8 | 8.0 | 0.00 | 0.91 | 0.91 | 90 | 1011.2 |
| 20260505072446 | 27 | 54 | 6.4 | 9.7 | 0.00 | 0.91 | 0.91 | 90 | 1011.2 |
| 20260505071942 | 27 | 75 | 3.2 | 6.4 | 0.00 | 0.91 | 0.91 | 90 | 1011.2 |
| 20260505071438 | 27 | 79 | 3.2 | 4.8 | 0.00 | 0.91 | 0.91 | 90 | 1010.8 |
| 20260505070936 | 27 | 60 | 6.4 | 14.5 | 0.00 | 0.91 | 0.91 | 89 | 1010.8 |
| 20260505070433 | 27 | 126 | 0.0 | 1.6 | 0.00 | 0.91 | 0.91 | 91 | 1010.8 |
| 20260505065928 | 27 | 73 | 4.8 | 11.3 | 0.00 | 0.91 | 0.91 | 92 | 1010.8 |
| 20260505065425 | 27 | 42 | 1.6 | 4.8 | 0.00 | 0.91 | 0.91 | 93 | 1010.8 |
| 20260505064922 | 27 | 71 | 4.8 | 9.7 | 0.00 | 0.91 | 0.91 | 93 | 1010.8 |
| 20260505064419 | 27 | 90 | 1.6 | 3.2 | 0.00 | 0.91 | 0.91 | 93 | 1010.5 |
| 20260505063917 | 27 | 87 | 1.6 | 4.8 | 0.00 | 0.91 | 0.91 | 93 | 1010.5 |
| 20260505063413 | 27 | 78 | 4.8 | 8.0 | 0.00 | 0.91 | 0.91 | 92 | 1010.5 |
| 20260505062910 | 27 | 60 | 6.4 | 12.9 | 0.00 | 0.86 | 0.86 | 91 | 1010.5 |
| 20260505062407 | 27 | 66 | 6.4 | 11.3 | 0.00 | 0.86 | 0.86 | 92 | 1010.2 |
| 20260505061904 | 27 | 49 | 8.0 | 16.1 | 0.00 | 0.86 | 0.86 | 92 | 1010.2 |
| 20260505061402 | 27 | 46 | 6.4 | 11.3 | 0.00 | 0.86 | 0.86 | 92 | 1010.2 |
| 20260505060859 | 28 | 49 | 6.4 | 11.3 | 0.00 | 0.79 | 0.79 | 90 | 1010.2 |
| 20260505060356 | 28 | 46 | 4.8 | 8.0 | 0.00 | 0.76 | 0.76 | 89 | 1010.2 |
| 20260505055852 | 28 | 50 | 4.8 | 9.7 | 0.00 | 0.76 | 0.76 | 89 | 1010.2 |
| 20260505055348 | 28 | 62 | 4.8 | 9.7 | 0.00 | 0.76 | 0.76 | 90 | 1010.2 |
| 20260505054845 | 28 | 77 | 3.2 | 6.4 | 0.00 | 0.76 | 0.76 | 89 | 1010.2 |
| 20260505054343 | 28 | 61 | 6.4 | 8.0 | 0.00 | 0.76 | 0.76 | 89 | 1010.2 |
| 20260505053841 | 27 | 65 | 3.2 | 6.4 | 0.00 | 0.76 | 0.76 | 89 | 1010.2 |
| 20260505053338 | 27 | 48 | 6.4 | 12.9 | 0.00 | 0.76 | 0.76 | 89 | 1010.2 |
| 20260505052834 | 28 | 66 | 1.6 | 6.4 | 0.00 | 0.76 | 0.76 | 90 | 1010.2 |
| 20260505052331 | 28 | 89 | 4.8 | 12.9 | 0.00 | 0.76 | 0.76 | 90 | 1010.2 |
| 20260505051828 | 28 | 52 | 3.2 | 8.0 | 0.00 | 0.76 | 0.76 | 91 | 1009.8 |
| 20260505051325 | 28 | 76 | 4.8 | 11.3 | 0.00 | 0.76 | 0.76 | 91 | 1009.8 |
| 20260505050823 | 28 | 83 | 3.2 | 6.4 | 0.00 | 0.76 | 0.76 | 92 | 1009.8 |
| 20260505050322 | 28 | 76 | 3.2 | 6.4 | 0.00 | 0.76 | 0.76 | 92 | 1010.2 |
| 20260505041752 | 30 | 62 | 4.8 | 12.9 | 0.00 | 0.53 | 0.53 | 80 | 1010.2 |
| 20260505041249 | 30 | 72 | 3.2 | 6.4 | 0.00 | 0.53 | 0.53 | 80 | 1010.2 |
| 20260505040746 | 30 | 64 | 4.8 | 11.3 | 0.00 | 0.53 | 0.53 | 80 | 1010.2 |
| 20260505040244 | 30 | 62 | 6.4 | 11.3 | 0.00 | 0.53 | 0.53 | 80 | 1010.2 |
| 20260505035741 | 30 | 58 | 4.8 | 9.7 | 0.00 | 0.53 | 0.53 | 81 | 1010.2 |
| 20260505035236 | 30 | 71 | 4.8 | 9.7 | 0.00 | 0.53 | 0.53 | 83 | 1010.2 |
| 20260505034733 | 30 | 61 | 6.4 | 8.0 | 0.00 | 0.53 | 0.53 | 82 | 1010.2 |
| 20260505034230 | 30 | 57 | 6.4 | 11.3 | 0.00 | 0.53 | 0.53 | 79 | 1010.2 |
| 20260505033727 | 31 | 64 | 6.4 | 12.9 | 0.00 | 0.53 | 0.53 | 78 | 1010.2 |
| 20260505033225 | 31 | 63 | 4.8 | 9.7 | 0.00 | 0.53 | 0.53 | 78 | 1010.2 |
| 20260505032722 | 31 | 47 | 8.0 | 12.9 | 0.00 | 0.53 | 0.53 | 78 | 1010.2 |
| 20260505032218 | 31 | 49 | 6.4 | 12.9 | 0.00 | 0.53 | 0.53 | 77 | 1010.2 |
| 20260505031716 | 31 | 60 | 9.7 | 14.5 | 0.00 | 0.53 | 0.53 | 77 | 1010.5 |
| 20260505031212 | 31 | 104 | 4.8 | 11.3 | 0.00 | 0.53 | 0.53 | 75 | 1010.5 |
| 20260505030709 | 32 | 62 | 6.4 | 12.9 | 0.00 | 0.53 | 0.53 | 76 | 1010.2 |
| 20260505030205 | 31 | 66 | 6.4 | 11.3 | 0.00 | 0.53 | 0.53 | 76 | 1010.5 |
| 20260505025701 | 31 | 336 | 0.0 | 9.7 | 0.00 | 0.53 | 0.53 | 76 | 1010.5 |
| 20260505025159 | 31 | 67 | 3.2 | 11.3 | 0.00 | 0.53 | 0.53 | 76 | 1010.5 |
| 20260505024657 | 31 | 101 | 4.8 | 9.7 | 0.00 | 0.53 | 0.53 | 76 | 1010.5 |
| 20260505024154 | 31 | 57 | 3.2 | 9.7 | 0.00 | 0.53 | 0.53 | 77 | 1010.8 |
| 20260505023651 | 31 | 69 | 4.8 | 8.0 | 0.00 | 0.53 | 0.53 | 77 | 1010.5 |
| 20260505023149 | 31 | 52 | 4.8 | 11.3 | 0.00 | 0.53 | 0.53 | 78 | 1010.5 |
| 20260505022646 | 31 | 76 | 3.2 | 6.4 | 0.00 | 0.53 | 0.53 | 77 | 1010.5 |
| 20260505022143 | 31 | 71 | 3.2 | 6.4 | 0.00 | 0.53 | 0.53 | 78 | 1010.8 |
| 20260505021639 | 30 | 56 | 4.8 | 11.3 | 0.00 | 0.53 | 0.53 | 79 | 1010.8 |
| 20260505021136 | 30 | 62 | 4.8 | 6.4 | 0.00 | 0.53 | 0.53 | 79 | 1010.8 |
| 20260505020632 | 30 | 56 | 4.8 | 12.9 | 0.00 | 0.53 | 0.53 | 79 | 1010.8 |
| 20260505020128 | 30 | 91 | 8.0 | 17.7 | 0.00 | 0.53 | 0.53 | 79 | 1010.8 |
| 20260505015625 | 30 | 63 | 1.6 | 4.8 | 0.00 | 0.53 | 0.53 | 81 | 1010.8 |
| 20260505015122 | 30 | 96 | 4.8 | 9.7 | 0.00 | 0.53 | 0.53 | 80 | 1010.8 |
| 20260505014619 | 30 | 49 | 8.0 | 12.9 | 0.00 | 0.53 | 0.53 | 80 | 1010.8 |
| 20260505014116 | 30 | 48 | 1.6 | 4.8 | 0.00 | 0.53 | 0.53 | 81 | 1010.8 |
| 20260505013613 | 30 | 67 | 8.0 | 12.9 | 0.00 | 0.53 | 0.53 | 81 | 1010.8 |
| 20260505013110 | 30 | 41 | 9.7 | 19.3 | 0.00 | 0.53 | 0.53 | 81 | 1010.8 |
| 20260505012608 | 30 | 62 | 6.4 | 14.5 | 0.00 | 0.53 | 0.53 | 80 | 1010.8 |
| 20260505012105 | 30 | 48 | 6.4 | 9.7 | 0.00 | 0.53 | 0.53 | 80 | 1010.8 |
| 20260505011600 | 30 | 75 | 6.4 | 19.3 | 0.00 | 0.53 | 0.53 | 81 | 1011.2 |
| 20260505011058 | 29 | 36 | 1.6 | 6.4 | 0.00 | 0.53 | 0.53 | 80 | 1011.2 |
| 20260505010559 | 30 | 64 | 4.8 | 16.1 | 0.00 | 0.53 | 0.53 | 80 | 1010.8 |
| 20260505010055 | 29 | 48 | 3.2 | 6.4 | 0.00 | 0.53 | 0.53 | 80 | 1011.2 |
| 20260505005552 | 29 | 70 | 6.4 | 14.5 | 0.00 | 0.53 | 0.53 | 81 | 1010.8 |
| 20260505005049 | 29 | 76 | 6.4 | 12.9 | 0.00 | 0.53 | 0.53 | 82 | 1011.2 |
| 20260505004546 | 29 | 38 | 3.2 | 4.8 | 0.00 | 0.53 | 0.53 | 82 | 1011.2 |
| 20260505004043 | 28 | 60 | 6.4 | 11.3 | 0.00 | 0.53 | 0.53 | 82 | 1010.8 |
| 20260505003540 | 28 | 60 | 11.3 | 17.7 | 0.00 | 0.53 | 0.53 | 82 | 1011.2 |
| 20260505003037 | 28 | 57 | 6.4 | 11.3 | 0.00 | 0.53 | 0.53 | 82 | 1011.2 |
| 20260505002538 | 28 | 63 | 6.4 | 9.7 | 0.00 | 0.53 | 0.53 | 82 | 1011.2 |
| 20260505002037 | 28 | 77 | 8.0 | 14.5 | 0.00 | 0.53 | 0.53 | 83 | 1010.8 |
| 20260505001534 | 28 | 63 | 9.7 | 16.1 | 0.00 | 0.53 | 0.53 | 83 | 1010.8 |
| 20260505001031 | 28 | 65 | 9.7 | 14.5 | 0.00 | 0.53 | 0.53 | 83 | 1010.8 |
| 20260505000529 | 28 | 60 | 11.3 | 27.4 | 0.00 | 0.53 | 0.53 | 83 | 1010.8 |
| 20260505000026 | 28 | 62 | 6.4 | 11.3 | 0.00 | 0.53 | 0.53 | 85 | 1010.8 |
| 20260504235523 | 28 | 73 | 6.4 | 16.1 | 0.00 | 0.53 | 0.53 | 86 | 1010.8 |
| 20260504235019 | 28 | 44 | 3.2 | 8.0 | 0.00 | 0.53 | 0.53 | 87 | 1010.8 |
| 20260504234516 | 28 | 63 | 8.0 | 17.7 | 0.00 | 0.53 | 0.53 | 87 | 1010.8 |
| 20260504234013 | 28 | 53 | 6.4 | 8.0 | 0.00 | 0.53 | 0.53 | 87 | 1010.8 |
| 20260504233508 | 28 | 61 | 9.7 | 17.7 | 0.00 | 0.53 | 0.53 | 87 | 1010.8 |
| 20260504233006 | 28 | 59 | 6.4 | 14.5 | 0.00 | 0.53 | 0.53 | 88 | 1010.8 |
| 20260504232503 | 28 | 70 | 9.7 | 20.9 | 0.00 | 0.53 | 0.53 | 88 | 1010.8 |
| 20260504232000 | 28 | 58 | 9.7 | 17.7 | 0.00 | 0.53 | 0.53 | 88 | 1010.8 |
| 20260504231456 | 28 | 63 | 9.7 | 17.7 | 0.00 | 0.53 | 0.53 | 89 | 1010.8 |
| 20260504230953 | 28 | 71 | 9.7 | 22.5 | 0.00 | 0.53 | 0.53 | 88 | 1010.8 |
| 20260504230449 | 28 | 68 | 9.7 | 17.7 | 0.00 | 0.53 | 0.53 | 88 | 1010.8 |
| 20260504225948 | 28 | 60 | 11.3 | 17.7 | 0.00 | 0.53 | 0.53 | 88 | 1010.8 |
| 20260504225444 | 28 | 54 | 6.4 | 14.5 | 0.00 | 0.53 | 0.53 | 88 | 1010.8 |
| 20260504224942 | 28 | 68 | 11.3 | 17.7 | 0.00 | 0.53 | 0.53 | 87 | 1010.8 |
| 20260504224438 | 28 | 50 | 9.7 | 16.1 | 0.00 | 0.53 | 0.53 | 87 | 1010.8 |